Home   Weather   Basel   Past weeks

Flag for Switzerland Past Weather in Basel, Basel-Stadt, Switzerland — Yesterday and Last 2 Weeks

Now
55 °F

Clear.


Feels Like: 55 °F
Forecast: 51 / 74 °F
Wind: 2 mph from South

Location: Bale-Mulhouse

Current Time: Sep 30, 2016 at 12:07:59 AM

Latest Report: Sep 29, 2016 at 11:00 PM


Visibility: 19 mi

Pressure: 30.11 "Hg

Humidity: 87%

Dew Point: 51 °F

Location of BaselLocation

Past Weather in Basel — Graph

°F

Basel Temperature Yesterday

Maximum temperature yesterday: 79 °F (at 4:00 PM)
Minimum temperature yesterday: 51 °F (at 1:00 AM)
Average temperature yesterday: 62 °F

High & Low Weather Summary for the Past Weeks

 TemperatureHumidityPressure
High79 °F (Sep 29, 4:00 PM)98% (Sep 17, 8:00 AM)30.45 "Hg (Sep 17, 8:00 AM)
Low42 °F (Sep 24, 7:00 AM)39% (Sep 25, 4:00 PM)29.78 "Hg (Sep 15, 3:00 AM)
Average59 °F82%30.13 "Hg
* Reported Sep 14 10:00 PM — Sep 29 10:00 PM, Basel, Weather by CustomWeather, © 2016

Note: Actual official high and low records may vary slightly from our data, if they occured in-between our weather recording intervals... More about our weather records

Advertising

Basel Weather History for the Previous 24 Hours

Scroll right to see more
 ConditionsComfort  
Time TempWeatherWind HumidityBarometerVisibility
10:00 PM
Thu, Sep 29
57 °FClear.2 mph85%30.11 "Hg19 mi
9:00 PM60 °FClear.2 mph80%30.11 "Hg19 mi
8:00 PM65 °FPassing clouds.5 mph72%30.09 "Hg19 mi
6:00 PM77 °FPassing clouds.8 mph46%30.08 "Hg19 mi
5:00 PM79 °FPassing clouds.8 mph41%30.09 "Hg19 mi
4:00 PM79 °FPassing clouds.9 mph42%30.11 "Hg19 mi
3:00 PM78 °FWarm.9 mph44%30.13 "Hg31 mi
2:00 PM76 °FPassing clouds.3 mph50%30.16 "Hg19 mi
1:00 PM74 °FPassing clouds.2 mph53%30.20 "Hg19 mi
11:00 AM66 °FPassing clouds.6 mph69%30.26 "Hg19 mi
9:00 AM57 °FPassing clouds.6 mph89%30.29 "Hg19 mi
8:00 AM53 °FPassing clouds.6 mph95%30.30 "Hg12 mi
7:00 AM53 °FPassing clouds.6 mph96%30.31 "Hg6 mi
6:00 AM53 °FClear.5 mph95%30.32 "Hg6 mi
5:00 AM53 °FClear.6 mph95%30.33 "Hg6 mi
4:00 AM53 °FCool.5 mph94%30.35 "Hg5 mi
3:00 AM54 °FCool.3 mph95%30.36 "Hg5 mi
2:00 AM53 °FCool.5 mph98%30.38 "Hg6 mi
1:00 AM51 °FCool.1 mph95%30.39 "Hg4 mi
12:00 AM53 °FClear.2 mph94%30.40 "Hg16 mi
Weather by CustomWeather, © 2016

See weather overviewHow to use our weather pages